GFSMA_prec_pwat_021.txt.gz
Precipitable_Water
1.24 1.15 1.24 1.22 1.19 1.18 1.15 1.12 1.05 0.97 0.86 0.81 0.77 0.73 0.70 0.65 0.64 0.62 0.64 0.66 0.63 0.59 0.57 0.57 0.58 0.58 0.58 0.58 0.60 0.65 0.70 0.74 0.76 0.76 0.77 0.82 0.81 0.74 0.71 0.67 0.73 0.90 1.04
1.17 1.19 1.15 1.22 1.19 1.18 1.14 1.04 0.92 0.82 0.78 0.76 0.72 0.68 0.67 0.66 0.66 0.65 0.63 0.64 0.63 0.59 0.54 0.53 0.52 0.52 0.52 0.52 0.52 0.52 0.55 0.62 0.67 0.72 0.74 0.76 0.81 0.83 0.79 0.73 0.67 0.70 0.83
1.32 1.25 1.21 1.18 1.15 1.07 0.95 0.85 0.81 0.76 0.71 0.68 0.66 0.63 0.61 0.58 0.60 0.58 0.58 0.61 0.67 0.65 0.61 0.57 0.53 0.51 0.50 0.49 0.50 0.51 0.51 0.51 0.52 0.60 0.67 0.70 0.73 0.80 0.85 0.82 0.77 0.70 0.67
1.24 1.17 1.10 1.00 0.93 0.81 0.77 0.74 0.70 0.66 0.64 0.62 0.61 0.59 0.55 0.51 0.52 0.55 0.51 0.57 0.67 0.62 0.63 0.59 0.52 0.47 0.45 0.44 0.45 0.47 0.47 0.49 0.50 0.51 0.54 0.63 0.68 0.71 0.77 0.84 0.85 0.80 0.72
0.99 0.90 0.82 0.79 0.76 0.72 0.71 0.70 0.68 0.67 0.63 0.60 0.54 0.52 0.51 0.44 0.49 0.44 0.44 0.50 0.66 0.61 0.59 0.50 0.49 0.41 0.41 0.39 0.40 0.41 0.43 0.48 0.48 0.48 0.52 0.52 0.57 0.64 0.70 0.76 0.84 0.87 0.80
0.77 0.74 0.74 0.75 0.74 0.72 0.72 0.73 0.69 0.66 0.59 0.52 0.47 0.48 0.44 0.43 0.40 0.42 0.50 0.57 0.54 0.50 0.55 0.52 0.47 0.46 0.44 0.40 0.37 0.36 0.42 0.44 0.46 0.49 0.45 0.44 0.46 0.51 0.59 0.66 0.75 0.83 0.88
0.73 0.73 0.73 0.74 0.76 0.73 0.71 0.68 0.64 0.56 0.44 0.40 0.41 0.44 0.43 0.42 0.40 0.42 0.42 0.48 0.51 0.46 0.47 0.46 0.48 0.46 0.43 0.41 0.40 0.42 0.39 0.41 0.45 0.42 0.41 0.39 0.37 0.39 0.44 0.55 0.63 0.74 0.84
0.77 0.75 0.78 0.76 0.74 0.68 0.61 0.54 0.50 0.46 0.42 0.41 0.39 0.39 0.29 0.29 0.33 0.38 0.40 0.41 0.39 0.43 0.41 0.44 0.43 0.42 0.42 0.39 0.39 0.37 0.43 0.43 0.41 0.38 0.37 0.36 0.35 0.35 0.37 0.43 0.55 0.64 0.74
0.81 0.78 0.76 0.70 0.63 0.55 0.47 0.46 0.47 0.46 0.37 0.38 0.38 0.36 0.28 0.25 0.30 0.34 0.33 0.32 0.35 0.37 0.40 0.36 0.36 0.36 0.38 0.35 0.34 0.33 0.35 0.37 0.34 0.32 0.33 0.35 0.36 0.34 0.36 0.38 0.44 0.56 0.66
0.78 0.72 0.63 0.60 0.56 0.50 0.47 0.46 0.45 0.45 0.39 0.35 0.39 0.39 0.39 0.37 0.29 0.24 0.28 0.27 0.31 0.30 0.32 0.31 0.32 0.31 0.30 0.30 0.31 0.31 0.33 0.29 0.28 0.29 0.28 0.32 0.34 0.36 0.36 0.38 0.41 0.44 0.58
0.56 0.52 0.48 0.50 0.53 0.51 0.48 0.48 0.47 0.44 0.42 0.40 0.38 0.36 0.33 0.33 0.31 0.25 0.20 0.22 0.25 0.27 0.28 0.29 0.29 0.29 0.28 0.28 0.28 0.29 0.28 0.29 0.27 0.24 0.23 0.28 0.33 0.37 0.40 0.39 0.42 0.45 0.52
0.44 0.41 0.41 0.39 0.39 0.45 0.48 0.48 0.48 0.44 0.43 0.44 0.37 0.33 0.30 0.26 0.24 0.24 0.22 0.23 0.23 0.23 0.26 0.28 0.27 0.28 0.28 0.27 0.27 0.27 0.27 0.28 0.26 0.24 0.22 0.28 0.31 0.38 0.41 0.42 0.44 0.50 0.51
0.40 0.38 0.37 0.36 0.38 0.41 0.46 0.46 0.46 0.43 0.50 0.42 0.36 0.33 0.31 0.31 0.31 0.29 0.26 0.24 0.23 0.23 0.24 0.25 0.27 0.27 0.27 0.27 0.26 0.26 0.25 0.24 0.24 0.23 0.26 0.28 0.29 0.37 0.42 0.43 0.45 0.52 0.56
0.36 0.34 0.36 0.40 0.43 0.46 0.47 0.48 0.48 0.52 0.49 0.45 0.37 0.37 0.35 0.34 0.34 0.32 0.29 0.27 0.23 0.22 0.23 0.23 0.27 0.27 0.26 0.25 0.25 0.25 0.25 0.25 0.24 0.24 0.27 0.28 0.28 0.35 0.41 0.42 0.43 0.51 0.59
0.33 0.34 0.38 0.38 0.42 0.44 0.43 0.51 0.51 0.51 0.46 0.41 0.43 0.41 0.37 0.35 0.35 0.35 0.32 0.30 0.26 0.21 0.21 0.23 0.23 0.26 0.25 0.24 0.25 0.27 0.27 0.28 0.31 0.29 0.25 0.27 0.28 0.31 0.39 0.41 0.41 0.44 0.52
0.36 0.38 0.36 0.35 0.35 0.39 0.43 0.47 0.44 0.42 0.44 0.43 0.46 0.38 0.33 0.35 0.37 0.34 0.30 0.30 0.28 0.25 0.21 0.23 0.23 0.24 0.24 0.25 0.28 0.28 0.29 0.30 0.28 0.29 0.30 0.25 0.29 0.29 0.35 0.40 0.40 0.41 0.44
0.40 0.37 0.35 0.35 0.35 0.35 0.37 0.37 0.40 0.43 0.43 0.42 0.42 0.34 0.34 0.36 0.34 0.33 0.31 0.29 0.26 0.25 0.22 0.22 0.22 0.23 0.24 0.27 0.28 0.28 0.28 0.28 0.28 0.29 0.31 0.31 0.31 0.31 0.29 0.36 0.38 0.38 0.40
0.40 0.36 0.35 0.36 0.36 0.37 0.36 0.37 0.37 0.41 0.39 0.36 0.33 0.34 0.35 0.34 0.32 0.31 0.27 0.25 0.24 0.23 0.21 0.19 0.19 0.23 0.25 0.27 0.26 0.26 0.28 0.28 0.28 0.28 0.35 0.39 0.38 0.37 0.31 0.33 0.35 0.36 0.37
0.38 0.35 0.36 0.35 0.35 0.37 0.36 0.36 0.33 0.33 0.33 0.34 0.36 0.34 0.34 0.33 0.31 0.25 0.23 0.21 0.20 0.21 0.21 0.20 0.20 0.25 0.26 0.26 0.26 0.27 0.26 0.28 0.28 0.31 0.38 0.41 0.40 0.36 0.31 0.30 0.33 0.36 0.36
0.37 0.35 0.35 0.35 0.36 0.35 0.37 0.36 0.34 0.34 0.35 0.35 0.36 0.35 0.32 0.29 0.22 0.21 0.18 0.19 0.20 0.20 0.20 0.20 0.21 0.23 0.24 0.25 0.26 0.26 0.25 0.26 0.25 0.29 0.34 0.43 0.41 0.34 0.28 0.26 0.28 0.36 0.38
0.37 0.35 0.34 0.34 0.35 0.40 0.40 0.37 0.33 0.34 0.34 0.33 0.32 0.30 0.25 0.21 0.20 0.19 0.19 0.19 0.20 0.19 0.20 0.20 0.22 0.22 0.21 0.22 0.25 0.24 0.24 0.25 0.25 0.28 0.31 0.36 0.39 0.35 0.32 0.32 0.32 0.39 0.40
0.36 0.34 0.34 0.34 0.35 0.40 0.38 0.33 0.29 0.28 0.29 0.28 0.26 0.22 0.21 0.20 0.21 0.21 0.22 0.22 0.22 0.20 0.21 0.23 0.22 0.19 0.19 0.23 0.25 0.25 0.25 0.21 0.18 0.27 0.31 0.29 0.36 0.33 0.32 0.31 0.32 0.32 0.35
0.35 0.34 0.34 0.33 0.34 0.36 0.34 0.27 0.25 0.25 0.25 0.24 0.22 0.20 0.20 0.20 0.22 0.22 0.21 0.21 0.22 0.24 0.25 0.25 0.23 0.21 0.24 0.25 0.25 0.23 0.24 0.23 0.22 0.24 0.26 0.26 0.29 0.28 0.30 0.31 0.29 0.26 0.31
0.34 0.33 0.33 0.33 0.32 0.34 0.32 0.26 0.24 0.23 0.24 0.23 0.22 0.21 0.21 0.21 0.21 0.20 0.18 0.19 0.20 0.21 0.23 0.23 0.21 0.22 0.25 0.25 0.22 0.22 0.22 0.22 0.23 0.22 0.23 0.20 0.24 0.23 0.26 0.30 0.30 0.27 0.29
0.32 0.33 0.33 0.31 0.31 0.34 0.33 0.27 0.23 0.23 0.24 0.23 0.23 0.23 0.21 0.18 0.20 0.17 0.17 0.18 0.19 0.20 0.23 0.22 0.21 0.25 0.25 0.26 0.24 0.24 0.21 0.19 0.19 0.21 0.25 0.26 0.23 0.22 0.25 0.28 0.28 0.26 0.29
0.32 0.33 0.29 0.30 0.32 0.32 0.31 0.26 0.23 0.23 0.22 0.23 0.23 0.23 0.21 0.18 0.19 0.16 0.16 0.16 0.17 0.20 0.18 0.18 0.23 0.26 0.26 0.26 0.25 0.25 0.24 0.21 0.21 0.20 0.25 0.26 0.24 0.23 0.21 0.24 0.25 0.27 0.30

GFSMA_prec_pwat_024.txt.gz
Precipitable_Water
1.30 1.16 1.06 1.08 1.13 1.14 1.11 1.10 1.06 1.00 0.90 0.83 0.80 0.75 0.70 0.68 0.67 0.66 0.69 0.68 0.64 0.63 0.64 0.62 0.60 0.59 0.58 0.57 0.56 0.56 0.56 0.58 0.64 0.70 0.75 0.78 0.80 0.80 0.76 0.79 0.75 0.70 0.68
1.12 1.10 1.12 1.17 1.15 1.11 1.07 0.99 0.90 0.80 0.74 0.72 0.68 0.67 0.65 0.62 0.61 0.61 0.63 0.64 0.61 0.62 0.65 0.65 0.61 0.57 0.56 0.54 0.53 0.52 0.53 0.54 0.55 0.55 0.60 0.67 0.74 0.78 0.78 0.75 0.80 0.79 0.74
1.21 1.16 1.14 1.09 1.04 0.99 0.88 0.79 0.73 0.70 0.67 0.65 0.63 0.63 0.60 0.58 0.54 0.51 0.53 0.54 0.60 0.63 0.68 0.64 0.59 0.55 0.52 0.50 0.49 0.49 0.50 0.50 0.53 0.54 0.55 0.57 0.63 0.68 0.75 0.78 0.75 0.79 0.82
1.15 1.10 1.03 0.94 0.86 0.75 0.71 0.69 0.69 0.67 0.67 0.65 0.62 0.56 0.55 0.54 0.50 0.44 0.51 0.49 0.53 0.68 0.69 0.65 0.59 0.52 0.50 0.47 0.45 0.45 0.46 0.48 0.50 0.50 0.52 0.54 0.53 0.55 0.61 0.68 0.77 0.76 0.78
0.93 0.85 0.78 0.75 0.72 0.71 0.72 0.74 0.73 0.70 0.65 0.61 0.53 0.46 0.48 0.47 0.46 0.45 0.43 0.43 0.49 0.64 0.64 0.64 0.58 0.55 0.51 0.48 0.46 0.43 0.42 0.48 0.49 0.52 0.54 0.50 0.47 0.48 0.50 0.53 0.62 0.75 0.79
0.76 0.74 0.74 0.73 0.75 0.75 0.74 0.73 0.69 0.66 0.61 0.52 0.42 0.38 0.43 0.47 0.42 0.41 0.47 0.51 0.51 0.54 0.55 0.53 0.52 0.52 0.51 0.48 0.46 0.46 0.47 0.44 0.48 0.50 0.50 0.47 0.45 0.44 0.41 0.42 0.48 0.55 0.69
0.73 0.74 0.77 0.78 0.78 0.74 0.72 0.66 0.59 0.50 0.46 0.45 0.39 0.39 0.39 0.39 0.38 0.38 0.42 0.41 0.43 0.46 0.48 0.49 0.47 0.48 0.46 0.44 0.44 0.43 0.40 0.47 0.48 0.45 0.43 0.41 0.40 0.39 0.38 0.38 0.38 0.45 0.53
0.76 0.77 0.79 0.77 0.74 0.67 0.57 0.52 0.47 0.42 0.45 0.46 0.37 0.32 0.28 0.33 0.34 0.37 0.37 0.38 0.38 0.40 0.43 0.44 0.43 0.41 0.40 0.39 0.38 0.36 0.38 0.37 0.36 0.36 0.37 0.37 0.36 0.38 0.38 0.38 0.37 0.38 0.44
0.82 0.80 0.77 0.73 0.65 0.58 0.51 0.47 0.44 0.44 0.42 0.42 0.39 0.35 0.28 0.26 0.32 0.36 0.34 0.31 0.29 0.30 0.32 0.34 0.34 0.35 0.34 0.33 0.30 0.31 0.33 0.32 0.31 0.30 0.29 0.30 0.31 0.32 0.37 0.40 0.39 0.38 0.39
0.82 0.75 0.68 0.60 0.56 0.54 0.50 0.46 0.47 0.45 0.43 0.36 0.37 0.39 0.38 0.35 0.27 0.23 0.28 0.28 0.28 0.27 0.27 0.28 0.28 0.30 0.30 0.29 0.28 0.29 0.29 0.30 0.29 0.29 0.28 0.28 0.29 0.29 0.34 0.37 0.42 0.41 0.39
0.65 0.57 0.49 0.43 0.39 0.38 0.41 0.45 0.45 0.45 0.44 0.40 0.38 0.35 0.34 0.32 0.30 0.24 0.20 0.23 0.24 0.24 0.26 0.28 0.30 0.30 0.30 0.29 0.27 0.28 0.31 0.30 0.28 0.27 0.27 0.26 0.27 0.29 0.32 0.36 0.42 0.45 0.43
0.53 0.45 0.41 0.38 0.37 0.39 0.40 0.45 0.47 0.47 0.44 0.45 0.42 0.41 0.35 0.30 0.26 0.26 0.23 0.22 0.21 0.24 0.25 0.28 0.30 0.30 0.31 0.29 0.29 0.28 0.28 0.26 0.26 0.25 0.25 0.25 0.25 0.29 0.31 0.32 0.43 0.46 0.49
0.44 0.41 0.38 0.37 0.38 0.41 0.42 0.46 0.45 0.46 0.45 0.44 0.46 0.42 0.38 0.34 0.34 0.32 0.28 0.24 0.26 0.26 0.26 0.28 0.27 0.29 0.30 0.29 0.28 0.27 0.25 0.24 0.24 0.24 0.24 0.25 0.26 0.27 0.32 0.32 0.38 0.40 0.43
0.43 0.40 0.37 0.37 0.37 0.41 0.44 0.47 0.46 0.43 0.47 0.48 0.47 0.46 0.43 0.40 0.38 0.37 0.32 0.28 0.23 0.23 0.24 0.25 0.29 0.28 0.28 0.26 0.28 0.26 0.25 0.25 0.26 0.27 0.28 0.27 0.28 0.28 0.27 0.31 0.32 0.39 0.40
0.41 0.37 0.38 0.38 0.39 0.39 0.41 0.44 0.40 0.47 0.51 0.47 0.47 0.48 0.46 0.43 0.43 0.40 0.36 0.34 0.27 0.21 0.21 0.25 0.25 0.29 0.28 0.27 0.26 0.25 0.25 0.26 0.28 0.28 0.27 0.26 0.28 0.30 0.29 0.30 0.31 0.37 0.38
0.39 0.39 0.39 0.40 0.40 0.38 0.37 0.39 0.42 0.42 0.40 0.43 0.45 0.47 0.46 0.45 0.41 0.38 0.35 0.34 0.30 0.27 0.22 0.24 0.24 0.26 0.27 0.26 0.25 0.24 0.25 0.27 0.26 0.26 0.26 0.27 0.29 0.30 0.31 0.31 0.31 0.33 0.38
0.41 0.42 0.42 0.40 0.38 0.38 0.41 0.40 0.39 0.38 0.38 0.39 0.43 0.43 0.45 0.43 0.37 0.34 0.34 0.32 0.29 0.27 0.21 0.21 0.22 0.23 0.23 0.22 0.22 0.25 0.26 0.25 0.26 0.28 0.29 0.28 0.30 0.32 0.34 0.33 0.32 0.29 0.33
0.44 0.44 0.42 0.38 0.38 0.39 0.40 0.38 0.34 0.38 0.34 0.34 0.36 0.36 0.36 0.37 0.34 0.34 0.31 0.27 0.24 0.21 0.19 0.16 0.19 0.20 0.21 0.22 0.24 0.25 0.26 0.27 0.27 0.27 0.27 0.30 0.33 0.37 0.40 0.38 0.37 0.32 0.31
0.46 0.45 0.40 0.38 0.38 0.37 0.40 0.39 0.39 0.38 0.35 0.34 0.35 0.34 0.34 0.34 0.32 0.28 0.25 0.20 0.18 0.18 0.19 0.18 0.17 0.19 0.21 0.23 0.23 0.26 0.26 0.27 0.29 0.29 0.28 0.30 0.35 0.36 0.42 0.39 0.35 0.32 0.29
0.47 0.44 0.40 0.38 0.37 0.37 0.38 0.39 0.40 0.38 0.35 0.34 0.36 0.35 0.32 0.29 0.24 0.21 0.18 0.17 0.17 0.18 0.18 0.18 0.18 0.19 0.21 0.23 0.23 0.21 0.21 0.25 0.25 0.27 0.27 0.28 0.32 0.38 0.40 0.37 0.33 0.30 0.30
0.44 0.42 0.40 0.37 0.38 0.38 0.40 0.40 0.39 0.36 0.33 0.31 0.31 0.30 0.28 0.23 0.21 0.19 0.18 0.18 0.19 0.18 0.18 0.17 0.18 0.19 0.20 0.21 0.19 0.23 0.25 0.25 0.25 0.25 0.25 0.27 0.33 0.35 0.40 0.36 0.36 0.35 0.35
0.42 0.41 0.40 0.38 0.38 0.40 0.40 0.36 0.34 0.28 0.26 0.26 0.25 0.24 0.23 0.21 0.21 0.21 0.22 0.22 0.21 0.18 0.18 0.19 0.20 0.21 0.22 0.23 0.24 0.24 0.23 0.21 0.18 0.25 0.24 0.22 0.28 0.30 0.36 0.39 0.38 0.38 0.34
0.40 0.40 0.40 0.38 0.36 0.39 0.36 0.34 0.29 0.25 0.23 0.24 0.23 0.21 0.21 0.21 0.22 0.22 0.21 0.20 0.17 0.20 0.22 0.21 0.21 0.23 0.23 0.23 0.23 0.21 0.20 0.19 0.18 0.21 0.23 0.19 0.22 0.24 0.29 0.30 0.33 0.32 0.30
0.37 0.36 0.37 0.37 0.37 0.38 0.35 0.33 0.31 0.26 0.25 0.24 0.22 0.22 0.21 0.22 0.21 0.19 0.18 0.15 0.15 0.17 0.20 0.22 0.22 0.20 0.20 0.23 0.23 0.23 0.22 0.21 0.22 0.21 0.21 0.17 0.22 0.22 0.25 0.26 0.28 0.29 0.29
0.35 0.37 0.37 0.35 0.35 0.34 0.34 0.33 0.31 0.27 0.24 0.23 0.23 0.23 0.23 0.22 0.20 0.19 0.17 0.14 0.15 0.16 0.20 0.21 0.18 0.20 0.24 0.26 0.27 0.26 0.22 0.21 0.19 0.20 0.22 0.21 0.22 0.25 0.25 0.23 0.24 0.24 0.27
0.36 0.37 0.35 0.35 0.33 0.32 0.33 0.33 0.31 0.26 0.22 0.22 0.23 0.23 0.22 0.20 0.20 0.20 0.16 0.14 0.14 0.16 0.16 0.18 0.21 0.24 0.26 0.27 0.28 0.30 0.27 0.22 0.22 0.20 0.23 0.23 0.23 0.27 0.21 0.24 0.26 0.28 0.29

GFSMA_prec_pwat_030.txt.gz
Precipitable_Water
1.05 1.12 1.11 1.06 1.02 0.99 0.95 0.94 0.93 0.86 0.80 0.72 0.68 0.66 0.64 0.62 0.58 0.54 0.54 0.59 0.64 0.64 0.65 0.69 0.67 0.63 0.62 0.60 0.58 0.58 0.57 0.56 0.55 0.58 0.59 0.60 0.59 0.59 0.62 0.65 0.69 0.73 0.76
1.13 1.12 1.05 0.97 0.97 0.97 0.93 0.90 0.81 0.72 0.65 0.66 0.65 0.64 0.61 0.55 0.51 0.51 0.50 0.49 0.53 0.58 0.59 0.63 0.62 0.61 0.61 0.60 0.59 0.57 0.54 0.52 0.55 0.53 0.53 0.57 0.56 0.55 0.55 0.55 0.57 0.62 0.68
1.04 1.03 0.98 0.98 0.98 0.92 0.85 0.72 0.64 0.65 0.65 0.66 0.63 0.60 0.54 0.50 0.49 0.46 0.46 0.46 0.49 0.55 0.60 0.61 0.59 0.62 0.60 0.60 0.58 0.56 0.56 0.57 0.54 0.50 0.55 0.51 0.48 0.46 0.47 0.49 0.52 0.53 0.56
1.04 1.01 0.98 0.95 0.88 0.75 0.64 0.64 0.67 0.66 0.66 0.65 0.59 0.52 0.48 0.42 0.43 0.41 0.40 0.40 0.45 0.57 0.62 0.59 0.59 0.57 0.56 0.56 0.56 0.56 0.57 0.56 0.53 0.55 0.56 0.50 0.46 0.43 0.42 0.41 0.43 0.48 0.50
0.99 0.95 0.89 0.79 0.70 0.65 0.66 0.69 0.69 0.68 0.64 0.58 0.50 0.45 0.41 0.42 0.43 0.43 0.39 0.36 0.38 0.45 0.58 0.57 0.54 0.51 0.52 0.51 0.51 0.52 0.54 0.54 0.53 0.54 0.49 0.48 0.46 0.43 0.39 0.37 0.39 0.40 0.44
0.86 0.78 0.72 0.70 0.67 0.66 0.69 0.72 0.68 0.65 0.54 0.46 0.40 0.37 0.39 0.40 0.41 0.39 0.36 0.35 0.37 0.40 0.40 0.41 0.41 0.42 0.43 0.43 0.44 0.44 0.45 0.46 0.50 0.46 0.44 0.43 0.41 0.38 0.37 0.37 0.35 0.37 0.39
0.75 0.71 0.68 0.66 0.70 0.73 0.72 0.68 0.58 0.48 0.42 0.43 0.38 0.38 0.37 0.37 0.37 0.37 0.34 0.34 0.32 0.33 0.35 0.36 0.36 0.38 0.38 0.37 0.37 0.37 0.38 0.40 0.43 0.41 0.39 0.38 0.37 0.34 0.35 0.37 0.38 0.35 0.36
0.70 0.69 0.71 0.73 0.76 0.73 0.68 0.56 0.53 0.46 0.43 0.44 0.38 0.38 0.31 0.33 0.36 0.36 0.31 0.30 0.30 0.30 0.28 0.29 0.31 0.33 0.35 0.34 0.34 0.36 0.36 0.36 0.37 0.36 0.35 0.33 0.31 0.32 0.32 0.34 0.34 0.35 0.34
0.74 0.75 0.75 0.75 0.72 0.69 0.61 0.62 0.53 0.47 0.41 0.43 0.45 0.39 0.32 0.28 0.32 0.34 0.33 0.33 0.32 0.31 0.31 0.30 0.29 0.29 0.29 0.29 0.31 0.31 0.32 0.33 0.33 0.31 0.30 0.31 0.31 0.32 0.33 0.31 0.32 0.32 0.33
0.75 0.73 0.72 0.72 0.66 0.59 0.50 0.45 0.46 0.46 0.45 0.40 0.45 0.47 0.45 0.40 0.30 0.27 0.33 0.34 0.34 0.33 0.31 0.31 0.27 0.26 0.26 0.25 0.26 0.27 0.29 0.30 0.30 0.30 0.30 0.31 0.31 0.32 0.33 0.33 0.30 0.30 0.31
0.73 0.69 0.69 0.68 0.61 0.49 0.42 0.42 0.44 0.44 0.45 0.44 0.45 0.45 0.44 0.41 0.40 0.34 0.28 0.31 0.35 0.36 0.34 0.32 0.31 0.29 0.29 0.28 0.26 0.26 0.26 0.29 0.30 0.30 0.30 0.30 0.30 0.29 0.30 0.31 0.30 0.29 0.31
0.70 0.70 0.67 0.61 0.51 0.43 0.43 0.44 0.46 0.47 0.46 0.47 0.48 0.47 0.43 0.38 0.36 0.35 0.32 0.32 0.32 0.35 0.36 0.35 0.31 0.29 0.29 0.27 0.28 0.27 0.28 0.29 0.28 0.30 0.30 0.30 0.28 0.26 0.26 0.28 0.30 0.31 0.31
0.68 0.71 0.62 0.51 0.49 0.46 0.44 0.42 0.45 0.45 0.45 0.46 0.48 0.46 0.47 0.46 0.46 0.42 0.38 0.36 0.34 0.35 0.35 0.34 0.32 0.32 0.30 0.29 0.28 0.30 0.28 0.27 0.27 0.28 0.28 0.27 0.25 0.24 0.24 0.25 0.29 0.30 0.31
0.65 0.64 0.52 0.57 0.45 0.44 0.46 0.44 0.41 0.41 0.46 0.48 0.45 0.47 0.46 0.43 0.43 0.43 0.43 0.40 0.36 0.33 0.33 0.31 0.33 0.31 0.29 0.29 0.28 0.28 0.26 0.26 0.24 0.25 0.25 0.24 0.22 0.22 0.25 0.28 0.29 0.31 0.32
0.68 0.64 0.59 0.52 0.44 0.48 0.42 0.41 0.39 0.43 0.46 0.45 0.43 0.43 0.43 0.44 0.44 0.46 0.48 0.44 0.36 0.26 0.25 0.28 0.28 0.29 0.28 0.27 0.25 0.23 0.23 0.22 0.23 0.22 0.21 0.23 0.25 0.27 0.28 0.29 0.29 0.32 0.32
0.59 0.61 0.55 0.52 0.45 0.45 0.42 0.42 0.42 0.44 0.44 0.45 0.44 0.42 0.42 0.44 0.45 0.45 0.42 0.40 0.37 0.32 0.26 0.28 0.26 0.26 0.23 0.18 0.18 0.18 0.19 0.20 0.19 0.21 0.24 0.24 0.26 0.27 0.28 0.29 0.30 0.30 0.31
0.68 0.63 0.57 0.51 0.49 0.45 0.43 0.43 0.43 0.42 0.42 0.43 0.43 0.41 0.43 0.44 0.40 0.38 0.37 0.33 0.31 0.30 0.25 0.24 0.23 0.19 0.16 0.15 0.16 0.18 0.19 0.19 0.20 0.23 0.23 0.26 0.27 0.25 0.28 0.28 0.28 0.30 0.30
0.65 0.58 0.56 0.52 0.46 0.45 0.43 0.42 0.43 0.44 0.42 0.40 0.41 0.43 0.40 0.41 0.35 0.34 0.32 0.30 0.28 0.25 0.21 0.16 0.15 0.15 0.15 0.16 0.18 0.18 0.19 0.21 0.22 0.23 0.24 0.24 0.23 0.25 0.27 0.29 0.29 0.32 0.31
0.57 0.56 0.56 0.52 0.46 0.47 0.45 0.44 0.41 0.42 0.44 0.43 0.44 0.40 0.37 0.36 0.32 0.30 0.27 0.24 0.21 0.20 0.19 0.17 0.15 0.16 0.15 0.17 0.18 0.20 0.21 0.22 0.24 0.23 0.21 0.21 0.21 0.27 0.28 0.28 0.28 0.31 0.32
0.57 0.57 0.55 0.48 0.47 0.47 0.45 0.44 0.43 0.42 0.43 0.40 0.40 0.37 0.32 0.28 0.25 0.23 0.22 0.19 0.19 0.18 0.19 0.17 0.15 0.13 0.15 0.17 0.20 0.20 0.19 0.21 0.19 0.21 0.21 0.22 0.23 0.25 0.25 0.26 0.25 0.29 0.35
0.60 0.58 0.50 0.49 0.47 0.45 0.45 0.45 0.42 0.40 0.38 0.35 0.32 0.29 0.27 0.25 0.23 0.21 0.19 0.19 0.20 0.19 0.17 0.14 0.12 0.13 0.14 0.16 0.18 0.20 0.19 0.18 0.19 0.21 0.20 0.22 0.22 0.21 0.21 0.22 0.22 0.28 0.33
0.56 0.50 0.49 0.46 0.44 0.44 0.44 0.42 0.39 0.36 0.33 0.29 0.26 0.26 0.26 0.24 0.21 0.21 0.22 0.22 0.21 0.17 0.14 0.12 0.13 0.12 0.14 0.16 0.18 0.18 0.17 0.18 0.17 0.23 0.23 0.20 0.22 0.20 0.21 0.21 0.20 0.25 0.31
0.57 0.52 0.47 0.44 0.42 0.40 0.38 0.36 0.35 0.33 0.30 0.28 0.27 0.27 0.27 0.25 0.22 0.21 0.21 0.21 0.19 0.18 0.15 0.13 0.12 0.15 0.15 0.16 0.18 0.19 0.21 0.21 0.21 0.22 0.23 0.19 0.21 0.20 0.21 0.21 0.21 0.24 0.31
0.53 0.47 0.43 0.39 0.36 0.34 0.34 0.33 0.32 0.31 0.29 0.30 0.30 0.29 0.27 0.23 0.22 0.21 0.20 0.18 0.18 0.17 0.13 0.15 0.16 0.16 0.18 0.20 0.22 0.24 0.25 0.24 0.23 0.23 0.25 0.18 0.23 0.20 0.22 0.23 0.27 0.28 0.29
0.46 0.40 0.36 0.33 0.29 0.29 0.31 0.31 0.30 0.29 0.28 0.29 0.30 0.29 0.25 0.22 0.22 0.22 0.19 0.17 0.16 0.13 0.16 0.17 0.19 0.19 0.19 0.21 0.24 0.25 0.22 0.21 0.18 0.19 0.24 0.23 0.22 0.22 0.22 0.21 0.28 0.28 0.29
0.37 0.33 0.29 0.27 0.27 0.27 0.30 0.31 0.31 0.30 0.28 0.28 0.28 0.27 0.26 0.24 0.22 0.21 0.19 0.16 0.13 0.13 0.15 0.16 0.17 0.19 0.18 0.18 0.22 0.24 0.24 0.21 0.20 0.18 0.23 0.23 0.23 0.24 0.18 0.22 0.24 0.27 0.28

GFSMA_prec_pwat_033.txt.gz
Precipitable_Water
0.98 1.03 1.09 1.08 1.03 0.96 0.94 0.89 0.87 0.81 0.77 0.74 0.69 0.65 0.63 0.60 0.55 0.50 0.48 0.51 0.57 0.58 0.62 0.71 0.68 0.64 0.63 0.62 0.61 0.60 0.58 0.58 0.60 0.58 0.59 0.54 0.52 0.52 0.50 0.49 0.50 0.52 0.56
1.01 1.03 1.04 1.01 0.97 0.94 0.94 0.91 0.83 0.74 0.69 0.66 0.65 0.64 0.60 0.53 0.46 0.46 0.47 0.46 0.48 0.52 0.59 0.66 0.65 0.64 0.63 0.62 0.59 0.58 0.58 0.60 0.56 0.57 0.59 0.55 0.50 0.47 0.46 0.44 0.43 0.44 0.48
1.06 0.99 0.97 0.96 0.94 0.95 0.94 0.84 0.67 0.66 0.68 0.69 0.65 0.60 0.53 0.45 0.41 0.40 0.39 0.41 0.47 0.53 0.58 0.60 0.58 0.60 0.59 0.60 0.57 0.56 0.58 0.57 0.56 0.61 0.58 0.52 0.50 0.47 0.44 0.42 0.41 0.39 0.39
1.04 0.95 0.91 0.91 0.93 0.93 0.78 0.65 0.64 0.66 0.68 0.64 0.57 0.50 0.47 0.44 0.42 0.39 0.39 0.39 0.42 0.54 0.57 0.55 0.55 0.55 0.56 0.56 0.54 0.56 0.57 0.56 0.53 0.56 0.57 0.53 0.48 0.43 0.42 0.40 0.40 0.41 0.39
1.00 0.92 0.90 0.90 0.89 0.70 0.65 0.64 0.65 0.66 0.61 0.54 0.48 0.46 0.45 0.43 0.42 0.41 0.40 0.39 0.40 0.49 0.52 0.49 0.50 0.49 0.48 0.47 0.48 0.47 0.47 0.50 0.50 0.54 0.51 0.47 0.43 0.41 0.39 0.39 0.38 0.39 0.40
0.92 0.88 0.86 0.78 0.69 0.64 0.63 0.67 0.65 0.61 0.55 0.48 0.47 0.45 0.44 0.42 0.41 0.40 0.38 0.38 0.37 0.37 0.38 0.39 0.40 0.41 0.44 0.43 0.43 0.42 0.41 0.42 0.43 0.47 0.43 0.43 0.42 0.39 0.37 0.37 0.38 0.37 0.37
0.84 0.79 0.71 0.69 0.68 0.64 0.65 0.65 0.62 0.56 0.50 0.54 0.48 0.41 0.41 0.42 0.42 0.41 0.40 0.37 0.33 0.33 0.31 0.31 0.32 0.33 0.34 0.34 0.35 0.38 0.38 0.39 0.39 0.40 0.40 0.40 0.36 0.35 0.34 0.34 0.35 0.35 0.35
0.74 0.71 0.69 0.68 0.67 0.66 0.68 0.65 0.59 0.52 0.53 0.50 0.41 0.41 0.36 0.38 0.42 0.42 0.41 0.37 0.34 0.32 0.32 0.32 0.32 0.32 0.32 0.32 0.33 0.34 0.33 0.33 0.33 0.34 0.33 0.32 0.32 0.34 0.35 0.34 0.34 0.35 0.35
0.72 0.72 0.72 0.70 0.68 0.68 0.65 0.63 0.59 0.49 0.42 0.47 0.48 0.41 0.36 0.32 0.39 0.44 0.42 0.40 0.37 0.37 0.38 0.37 0.35 0.34 0.32 0.31 0.31 0.30 0.29 0.29 0.30 0.30 0.31 0.32 0.33 0.34 0.35 0.36 0.34 0.33 0.33
0.76 0.73 0.71 0.69 0.66 0.66 0.66 0.62 0.57 0.47 0.47 0.42 0.47 0.49 0.49 0.47 0.39 0.35 0.42 0.40 0.41 0.41 0.39 0.40 0.38 0.37 0.35 0.35 0.33 0.31 0.30 0.29 0.27 0.28 0.29 0.30 0.32 0.33 0.34 0.35 0.33 0.31 0.30
0.74 0.73 0.70 0.68 0.66 0.70 0.66 0.52 0.49 0.46 0.48 0.48 0.47 0.48 0.49 0.46 0.44 0.37 0.32 0.36 0.40 0.41 0.42 0.41 0.41 0.39 0.38 0.36 0.33 0.31 0.32 0.30 0.31 0.31 0.30 0.31 0.31 0.32 0.33 0.33 0.32 0.30 0.28
0.77 0.75 0.70 0.69 0.70 0.74 0.59 0.52 0.56 0.50 0.49 0.50 0.48 0.48 0.45 0.41 0.40 0.38 0.35 0.37 0.37 0.40 0.41 0.40 0.42 0.43 0.41 0.36 0.35 0.34 0.33 0.31 0.30 0.29 0.29 0.30 0.30 0.30 0.30 0.30 0.28 0.26 0.27
0.76 0.73 0.68 0.68 0.75 0.66 0.55 0.51 0.43 0.46 0.49 0.47 0.47 0.47 0.48 0.46 0.44 0.41 0.38 0.35 0.33 0.37 0.39 0.43 0.44 0.43 0.40 0.37 0.34 0.34 0.32 0.30 0.29 0.26 0.26 0.28 0.28 0.27 0.25 0.23 0.24 0.26 0.28
0.73 0.69 0.71 0.80 0.68 0.55 0.51 0.49 0.48 0.43 0.44 0.44 0.47 0.48 0.47 0.44 0.44 0.42 0.39 0.36 0.34 0.35 0.36 0.36 0.41 0.38 0.36 0.34 0.32 0.32 0.28 0.25 0.22 0.22 0.22 0.22 0.22 0.23 0.24 0.25 0.27 0.28 0.30
0.76 0.77 0.80 0.63 0.60 0.55 0.53 0.45 0.45 0.42 0.47 0.49 0.47 0.46 0.43 0.43 0.45 0.46 0.45 0.44 0.37 0.28 0.29 0.33 0.32 0.34 0.32 0.29 0.26 0.22 0.18 0.17 0.19 0.19 0.18 0.21 0.24 0.25 0.26 0.27 0.27 0.29 0.30
0.79 0.76 0.66 0.66 0.59 0.56 0.50 0.48 0.46 0.47 0.46 0.44 0.43 0.41 0.42 0.42 0.43 0.45 0.44 0.41 0.39 0.34 0.26 0.29 0.27 0.26 0.24 0.21 0.17 0.17 0.17 0.19 0.19 0.20 0.22 0.23 0.23 0.26 0.27 0.27 0.27 0.29 0.29
0.70 0.65 0.65 0.64 0.58 0.54 0.51 0.50 0.47 0.46 0.42 0.41 0.42 0.40 0.39 0.44 0.41 0.40 0.39 0.36 0.32 0.30 0.24 0.21 0.21 0.20 0.17 0.16 0.15 0.17 0.19 0.19 0.20 0.21 0.22 0.23 0.24 0.23 0.23 0.24 0.27 0.28 0.28
0.64 0.66 0.64 0.59 0.58 0.54 0.53 0.50 0.46 0.45 0.39 0.38 0.39 0.38 0.36 0.38 0.37 0.36 0.32 0.29 0.27 0.24 0.20 0.16 0.17 0.17 0.17 0.16 0.15 0.16 0.18 0.20 0.21 0.22 0.22 0.21 0.20 0.20 0.21 0.23 0.29 0.29 0.29
0.63 0.63 0.61 0.59 0.57 0.53 0.51 0.48 0.44 0.42 0.43 0.41 0.38 0.35 0.33 0.33 0.29 0.28 0.26 0.24 0.22 0.21 0.19 0.17 0.16 0.18 0.16 0.14 0.15 0.17 0.18 0.19 0.21 0.20 0.18 0.20 0.21 0.22 0.23 0.24 0.27 0.27 0.27
0.62 0.61 0.59 0.58 0.57 0.54 0.50 0.47 0.45 0.43 0.39 0.38 0.35 0.33 0.30 0.27 0.26 0.24 0.22 0.20 0.19 0.18 0.18 0.18 0.16 0.14 0.14 0.15 0.16 0.16 0.15 0.18 0.17 0.19 0.21 0.23 0.24 0.23 0.24 0.23 0.22 0.24 0.25
0.59 0.58 0.58 0.58 0.58 0.54 0.49 0.46 0.43 0.39 0.35 0.32 0.31 0.30 0.27 0.26 0.25 0.25 0.22 0.19 0.19 0.18 0.18 0.16 0.14 0.12 0.12 0.13 0.14 0.15 0.15 0.16 0.19 0.21 0.22 0.22 0.23 0.22 0.22 0.22 0.21 0.21 0.21
0.61 0.63 0.63 0.61 0.57 0.50 0.47 0.43 0.38 0.32 0.30 0.29 0.28 0.28 0.27 0.26 0.27 0.27 0.24 0.22 0.21 0.19 0.17 0.15 0.13 0.11 0.12 0.14 0.14 0.15 0.16 0.17 0.17 0.23 0.22 0.20 0.23 0.22 0.22 0.22 0.22 0.22 0.22
0.68 0.64 0.61 0.57 0.50 0.45 0.41 0.34 0.31 0.30 0.30 0.29 0.28 0.26 0.26 0.27 0.28 0.26 0.23 0.22 0.21 0.21 0.20 0.17 0.12 0.12 0.13 0.15 0.16 0.16 0.18 0.20 0.20 0.22 0.23 0.19 0.23 0.21 0.24 0.23 0.23 0.26 0.28
0.64 0.63 0.55 0.49 0.43 0.34 0.28 0.28 0.29 0.29 0.29 0.29 0.28 0.28 0.27 0.27 0.25 0.23 0.22 0.20 0.20 0.19 0.18 0.15 0.15 0.16 0.17 0.18 0.18 0.19 0.21 0.22 0.23 0.22 0.23 0.18 0.22 0.21 0.24 0.24 0.24 0.27 0.29
0.60 0.52 0.46 0.37 0.29 0.24 0.26 0.27 0.28 0.28 0.28 0.28 0.29 0.29 0.28 0.26 0.25 0.24 0.22 0.19 0.19 0.18 0.16 0.17 0.18 0.18 0.19 0.18 0.18 0.18 0.17 0.19 0.18 0.19 0.22 0.22 0.22 0.22 0.23 0.22 0.23 0.27 0.28
0.48 0.40 0.33 0.27 0.23 0.22 0.25 0.27 0.29 0.29 0.28 0.28 0.29 0.29 0.29 0.27 0.27 0.25 0.22 0.19 0.17 0.15 0.15 0.15 0.16 0.17 0.18 0.18 0.18 0.18 0.18 0.18 0.19 0.18 0.22 0.21 0.21 0.24 0.20 0.23 0.23 0.24 0.25